Wind_Speed
13 11 12 10 6 7 11 7 8 7 6 8 7 6 4 6 4 3 3 1 2 3 3 4 5 5 4 4 3 3 3 3 3 2 2 2 2 2 2 2 3 4 4 5 5 5 5 5 6
17 15 12 11 9 13 11 9 9 7 8 5 6 6 6 6 4 4 3 2 2 3 4 5 5 5 4 3 3 4 4 4 3 2 2 2 3 3 2 3 4 4 5 5 5 5 5 4 4
18 19 15 12 14 16 11 6 7 11 8 6 6 5 4 4 5 3 2 1 0 0 2 3 4 5 4 4 4 4 4 4 3 3 2 1 1 1 0 2 3 4 5 5 5 5 5 5 6
17 18 19 15 16 12 15 10 10 11 9 6 5 4 5 5 5 5 3 2 1 1 2 3 5 5 5 6 6 6 6 6 5 3 2 1 2 5 5 4 3 3 3 4 4 5 5 5 6
19 20 15 17 20 18 13 12 10 10 9 6 6 5 6 6 5 4 4 3 2 3 4 5 6 7 8 8 8 8 6 5 3 3 5 8 5 1 4 5 5 5 4 5 6 7 8 8 8
23 22 17 22 20 16 15 18 15 12 13 9 9 9 8 7 5 4 3 3 2 3 4 6 7 8 9 10 9 8 6 4 3 3 3 4 6 7 8 8 8 9 8 8 9 10 10 9 9
26 24 24 22 20 18 16 17 17 12 16 12 10 11 11 7 5 4 2 1 1 2 4 6 8 9 10 10 10 7 5 2 3 4 5 7 8 8 9 10 10 10 10 10 9 9 9 8 7
29 26 23 25 23 22 16 19 18 13 15 14 12 11 11 9 6 4 3 2 2 2 4 6 8 9 10 10 9 6 3 3 3 4 5 7 7 8 8 9 9 9 8 7 7 7 6 5 4
31 26 29 27 23 22 20 19 19 21 20 17 16 14 13 11 7 4 3 2 2 3 5 8 11 8 10 11 8 4 1 2 2 3 4 5 6 7 8 8 7 7 6 6 5 4 3 2 1
35 30 31 24 23 19 20 22 20 22 23 22 18 16 15 12 8 5 3 3 3 4 5 8 10 10 11 9 4 2 1 2 3 4 4 5 6 7 7 6 6 5 5 4 3 3 2 2 1
37 39 25 23 27 30 24 26 22 23 26 25 21 20 17 13 11 8 7 5 4 4 6 11 11 8 7 9 6 5 4 4 4 5 5 6 6 7 6 6 5 5 4 4 3 3 3 3 2
36 33 29 24 27 32 31 27 26 25 24 27 24 23 22 16 13 10 10 7 5 5 7 13 12 9 6 6 2 1 5 7 5 6 7 8 7 7 6 6 6 5 5 5 5 5 4 4 3
34 30 25 28 32 35 31 29 26 29 26 29 26 27 23 21 17 15 14 12 9 8 8 14 13 10 8 9 9 3 5 10 9 6 7 8 7 6 6 6 6 6 6 7 7 7 7 6 6
20 19 30 28 31 35 35 27 29 29 29 31 29 28 25 25 19 20 17 12 11 11 10 11 13 11 10 11 11 6 5 10 11 9 8 8 8 7 7 7 8 8 9 9 10 10 10 10 10
29 32 25 26 32 31 31 31 36 27 25 25 28 30 29 27 24 21 17 13 11 10 10 9 14 12 10 10 14 7 10 14 16 12 9 9 9 8 8 9 10 10 11 12 12 13 13 13 14
21 21 29 28 23 31 29 41 30 31 34 27 24 25 36 28 27 25 20 15 14 9 5 9 10 13 12 12 13 8 9 16 14 11 10 10 10 9 9 10 11 13 14 14 15 15 16 17 18
19 26 25 25 24 26 33 36 27 29 31 31 22 21 20 26 27 26 22 16 13 11 13 15 16 15 15 15 16 15 9 14 14 12 11 11 11 10 10 12 13 14 15 16 17 18 19 20 21
21 25 27 26 28 24 29 29 29 28 32 31 26 23 22 26 25 26 24 22 24 22 20 19 19 19 17 16 13 12 12 13 13 13 13 12 12 12 12 13 14 16 17 18 20 22 22 24 24
22 23 27 26 23 26 31 29 22 25 23 30 31 26 24 23 28 34 34 35 21 22 20 22 21 18 17 16 12 12 13 15 14 14 13 13 13 13 14 15 16 18 20 22 24 25 26 27 27
20 23 24 23 22 25 28 28 29 28 23 23 23 25 25 25 34 29 33 26 22 20 21 22 22 20 19 16 17 14 15 16 15 14 14 14 14 15 16 17 18 20 22 24 26 27 29 31 32
22 23 25 23 19 24 22 28 29 29 29 28 26 24 22 22 26 30 31 25 21 23 23 21 20 20 19 19 20 17 16 17 16 15 16 17 16 16 17 19 20 22 24 26 28 31 33 36 40
24 21 26 23 17 21 23 18 27 27 26 26 24 26 28 29 29 29 31 23 20 22 22 22 20 21 22 22 20 19 18 19 18 16 18 18 18 18 19 21 23 25 27 30 33 36 38 40 40
23 15 22 21 18 22 15 17 13 20 26 27 26 26 24 22 21 26 30 25 22 22 22 24 23 24 24 22 21 21 21 19 17 17 19 19 19 21 22 24 27 29 32 35 38 39 38 39 41
11 13 16 10 10 10 19 18 17 15 17 17 22 22 21 21 19 20 23 24 21 23 23 25 26 25 24 23 23 23 20 19 18 18 20 21 22 24 26 28 31 34 35 36 36 38 40 44 46
9 12 5 6 5 4 11 11 12 5 14 22 24 24 22 23 23 23 23 22 22 23 23 24 25 24 23 24 23 22 21 20 20 20 22 23 25 28 31 32 33 34 35 37 39 42 45 48 50
9 12 2 3 5 7 7 8 6 14 17 10 15 16 15 19 22 23 23 23 23 22 22 22 26 24 25 24 23 22 21 20 21 22 24 27 29 31 32 32 34 36 38 41 44 47 49 49 48
6 5 9 9 3 3 6 8 9 2 9 17 17 14 13 14 18 20 21 21 21 21 21 23 22 26 24 23 23 22 22 23 25 26 28 30 31 31 32 34 36 39 42 45 48 47 45 45 44
1 10 2 9 2 3 5 1 3 2 6 7 11 14 14 16 17 18 19 19 18 18 20 19 22 24 23 22 23 24 25 27 28 29 29 30 31 32 35 38 41 43 45 46 45 43 42 41 41
4 5 6 3 3 4 3 8 11 8 1 5 9 11 14 17 18 17 16 16 16 16 16 16 20 21 21 23 25 27 28 28 28 29 30 31 34 37 40 42 44 45 43 42 41 40 39 40 39
2 3 4 4 2 0 2 4 11 12 10 5 4 9 14 15 15 14 14 14 14 13 13 15 18 20 22 24 26 27 27 28 29 30 33 36 39 41 43 44 43 41 40 38 37 37 37 38 38
Wind_Direction
238 252 246 258 271 247 250 253 242 253 245 249 251 235 253 243 231 244 287 149 135 138 142 160 177 183 177 171 166 162 167 177 188 198 201 206 227 243 272 295 327 335 350 354 1 11 13 17 20
235 244 249 255 239 246 253 242 256 234 236 259 259 255 267 249 245 243 204 156 141 154 158 169 179 180 179 175 166 160 158 165 177 199 231 246 250 257 277 301 320 332 336 345 346 343 343 351 359
234 240 246 244 243 243 252 260 248 248 243 244 255 238 223 228 176 171 174 186 145 216 180 180 179 175 175 168 157 151 151 150 157 158 175 228 241 262 41 51 51 35 23 22 15 15 23 35 45
236 238 242 239 239 243 242 265 272 245 242 254 242 227 201 170 169 175 182 185 168 200 210 199 186 178 166 152 146 139 132 126 124 125 132 176 144 116 99 84 24 1 15 14 1 359 357 357 0
234 236 232 238 243 242 246 245 255 239 234 251 221 215 180 180 184 187 182 179 174 203 203 194 183 169 159 151 145 143 143 135 125 100 113 121 120 129 303 302 308 300 301 305 309 311 311 315 320
232 233 234 237 243 243 245 252 255 236 220 237 217 197 196 187 199 194 190 179 201 224 207 191 178 171 164 158 155 152 148 143 150 152 195 290 297 296 293 292 289 288 289 292 291 293 296 302 310
232 234 236 241 243 243 244 249 250 249 220 226 214 200 202 203 204 202 203 242 279 257 211 189 179 175 171 166 164 164 161 175 226 246 268 288 297 297 294 291 289 289 291 292 290 288 290 296 302
232 235 237 236 239 247 246 245 248 238 208 213 204 214 207 197 195 204 213 242 269 255 205 186 182 175 175 173 171 166 184 247 264 277 285 293 298 300 302 299 296 296 296 293 288 286 286 288 295
234 235 235 232 236 240 243 249 242 240 222 208 209 204 198 194 196 206 231 253 261 250 209 184 167 160 162 164 165 166 209 271 283 290 303 305 307 305 301 297 295 295 293 290 287 286 279 277 300
230 234 237 236 234 240 245 248 246 241 230 208 208 209 203 203 202 208 240 249 260 245 222 202 176 153 150 159 152 113 54 29 8 350 334 323 315 306 299 295 289 283 280 275 268 255 235 204 176
234 238 238 232 238 246 248 247 246 242 230 224 205 207 210 215 216 214 230 243 240 236 223 191 180 177 155 138 128 87 34 24 8 351 338 325 313 303 298 289 280 274 266 253 234 215 205 197 196
240 241 238 241 240 244 246 246 248 244 238 232 211 214 218 227 228 227 230 243 247 223 214 202 194 189 197 188 135 184 18 11 350 338 333 326 318 307 293 285 275 263 252 246 240 236 235 239 248
245 242 245 245 241 241 243 245 248 249 239 236 224 217 221 230 233 216 217 231 232 212 206 203 210 209 222 241 251 272 313 340 329 317 321 320 311 300 287 277 267 259 253 248 248 252 258 265 269
245 248 247 241 242 240 242 241 240 245 243 241 238 218 222 224 231 221 225 230 229 212 202 214 201 203 218 244 235 239 311 317 325 303 305 312 308 295 278 268 261 256 252 251 254 260 265 269 272
259 254 252 248 236 238 240 239 238 234 234 245 240 227 218 222 224 218 228 227 219 217 212 217 213 212 232 253 229 249 291 308 307 293 293 300 298 290 274 265 262 260 258 261 264 267 271 274 276
264 262 251 243 239 232 230 240 236 235 235 241 248 238 222 220 217 210 211 204 207 218 238 259 255 234 239 244 233 258 273 304 298 281 279 287 289 280 266 258 258 259 263 266 269 273 276 279 282
249 249 248 245 230 224 227 237 230 238 236 234 241 236 227 203 213 208 205 200 204 217 228 255 250 245 242 241 242 265 300 300 291 275 276 283 286 282 275 269 270 272 273 274 274 276 279 281 282
259 251 247 246 228 222 226 231 232 238 240 238 237 237 219 216 215 209 206 196 210 264 236 229 231 247 244 248 248 258 286 299 291 271 269 277 284 284 279 276 276 276 278 278 279 280 280 282 283
260 253 251 245 232 227 226 226 229 231 233 231 232 231 227 223 210 213 225 240 242 228 221 223 233 248 244 246 241 256 287 296 296 270 267 273 279 282 278 275 273 274 276 276 276 278 281 281 283
250 250 244 243 230 222 225 227 227 228 231 231 227 227 225 227 223 234 233 230 217 223 221 229 237 240 240 241 238 249 280 290 297 274 266 269 271 275 273 270 270 271 272 275 279 282 285 287 289
247 245 231 231 228 220 223 230 225 232 235 240 239 236 225 216 222 223 218 217 228 225 227 230 238 242 244 237 238 250 276 286 292 269 261 264 269 272 271 272 274 277 279 282 285 288 290 292 293
251 246 225 227 224 212 204 224 220 225 227 229 233 227 225 225 219 217 217 221 235 240 233 235 242 242 246 239 237 254 272 283 285 266 261 264 269 272 274 275 277 280 283 286 288 289 291 291 292
252 246 230 226 232 233 197 223 186 207 220 223 222 227 228 233 236 224 224 232 249 237 225 235 241 243 244 234 243 255 270 278 279 265 263 267 270 273 276 279 282 285 287 288 289 289 289 289 291
248 233 216 210 212 223 206 216 212 217 215 217 220 223 232 239 234 225 228 239 235 222 228 230 236 242 232 239 240 255 267 277 275 269 268 272 275 278 282 285 286 286 286 287 288 289 290 290 289
215 216 207 211 186 206 187 201 218 196 213 220 225 231 235 235 234 231 236 228 226 230 240 239 242 237 239 237 247 258 267 274 274 274 276 279 283 285 287 288 288 288 288 288 288 289 289 288 287
201 216 269 288 187 131 140 205 215 222 219 218 214 212 226 226 224 225 223 223 228 230 234 240 237 239 233 244 250 259 268 275 278 279 281 284 286 287 287 288 288 288 288 288 287 288 288 287 287
212 198 219 327 296 196 163 220 242 232 218 229 215 210 249 222 210 210 215 218 223 230 238 236 224 226 235 244 255 265 273 278 281 283 284 285 286 288 288 288 288 288 288 288 290 290 289 288 287
184 161 178 239 300 118 135 30 28 28 218 232 222 229 224 215 208 206 210 216 227 228 226 224 217 228 240 252 263 270 277 281 283 285 285 288 289 290 290 290 290 291 292 293 292 291 290 289 288
38 172 227 222 286 3 65 81 24 38 113 205 203 210 206 202 200 204 216 222 217 212 216 216 222 237 248 259 267 274 279 283 286 289 291 291 290 291 292 295 296 295 293 292 292 292 292 291 291
42 313 262 279 129 63 9 30 38 43 50 76 185 198 196 197 204 212 213 208 207 212 219 226 236 244 254 265 273 279 283 287 289 291 293 294 294 297 298 297 296 295 294 294 294 293 293 294 294
Height
3180 3181 3181 3182 3188 3184 3180 3180 3178 3178 3178 3177 3177 3178 3179 3178 3179 3182 3177 3175 3174 3174 3174 3174 3174 3175 3175 3175 3176 3175 3176 3176 3177 3177 3177 3177 3176 3176 3176 3176 3176 3176 3175 3175 3174 3174 3173 3172 3170
3178 3179 3181 3181 3183 3181 3179 3178 3177 3178 3177 3177 3177 3177 3177 3177 3176 3176 3176 3175 3174 3173 3173 3173 3174 3174 3175 3175 3175 3175 3175 3175 3176 3176 3176 3176 3176 3176 3176 3176 3176 3176 3175 3175 3174 3174 3173 3172 3171
3175 3177 3179 3178 3178 3177 3178 3177 3177 3176 3176 3176 3176 3176 3176 3175 3175 3175 3175 3175 3174 3174 3173 3173 3174 3174 3174 3174 3174 3174 3174 3174 3175 3175 3175 3176 3176 3176 3176 3176 3175 3175 3175 3174 3174 3173 3173 3172 3172
3173 3174 3176 3175 3174 3175 3176 3177 3175 3174 3175 3175 3175 3175 3176 3175 3175 3175 3174 3174 3173 3173 3173 3173 3173 3173 3174 3174 3174 3174 3174 3174 3175 3175 3175 3175 3175 3175 3175 3175 3175 3175 3175 3174 3173 3173 3173 3172 3172
3169 3170 3173 3171 3171 3172 3174 3173 3173 3173 3174 3174 3174 3174 3174 3174 3174 3174 3173 3173 3172 3172 3171 3171 3172 3172 3173 3174 3174 3174 3174 3174 3175 3176 3175 3175 3175 3175 3175 3174 3174 3174 3174 3174 3173 3172 3172 3171 3171
3165 3167 3168 3167 3167 3170 3171 3170 3171 3172 3172 3173 3173 3173 3174 3173 3173 3173 3173 3172 3172 3171 3171 3171 3171 3172 3173 3174 3174 3174 3174 3175 3175 3175 3175 3175 3174 3174 3174 3173 3173 3173 3173 3172 3172 3171 3171 3170 3170
3160 3161 3162 3163 3164 3167 3168 3167 3168 3170 3170 3171 3172 3172 3173 3172 3172 3172 3172 3172 3172 3171 3171 3171 3171 3172 3173 3173 3174 3174 3175 3175 3175 3174 3174 3173 3173 3172 3172 3171 3171 3171 3170 3170 3170 3170 3170 3170 3169
3156 3158 3157 3158 3160 3163 3165 3164 3166 3167 3168 3167 3170 3171 3171 3171 3171 3171 3171 3171 3171 3171 3170 3170 3171 3171 3172 3173 3173 3174 3174 3174 3174 3173 3172 3172 3171 3170 3170 3169 3169 3169 3169 3169 3169 3168 3169 3169 3168
3152 3152 3149 3153 3156 3160 3159 3161 3163 3163 3163 3165 3167 3168 3169 3169 3169 3170 3170 3170 3170 3169 3169 3169 3170 3171 3171 3172 3173 3173 3173 3173 3173 3172 3171 3170 3169 3168 3168 3167 3167 3167 3167 3167 3168 3168 3168 3168 3168
3144 3144 3145 3151 3154 3156 3156 3158 3158 3160 3160 3161 3164 3166 3167 3168 3168 3168 3168 3169 3168 3169 3169 3169 3170 3170 3171 3172 3173 3173 3173 3172 3172 3171 3170 3169 3168 3167 3167 3166 3166 3166 3166 3166 3167 3167 3167 3167 3167
3138 3135 3144 3144 3147 3151 3152 3153 3154 3156 3156 3159 3161 3163 3165 3166 3166 3167 3166 3166 3167 3168 3168 3169 3169 3170 3170 3171 3172 3173 3172 3171 3170 3170 3169 3168 3167 3166 3166 3166 3165 3165 3165 3165 3165 3165 3165 3166 3166
3132 3133 3136 3139 3142 3144 3147 3149 3150 3152 3155 3154 3157 3158 3162 3164 3165 3165 3165 3165 3165 3166 3166 3167 3168 3169 3169 3170 3171 3170 3170 3170 3169 3168 3168 3167 3166 3165 3165 3165 3165 3164 3164 3165 3164 3164 3165 3165 3165
3125 3129 3131 3133 3137 3138 3141 3142 3145 3146 3149 3149 3152 3154 3159 3162 3163 3163 3163 3163 3163 3164 3165 3166 3167 3168 3168 3168 3169 3168 3169 3168 3168 3166 3166 3165 3165 3164 3163 3163 3163 3163 3164 3164 3163 3163 3163 3163 3163
3121 3121 3123 3126 3129 3132 3134 3138 3139 3142 3143 3144 3147 3151 3154 3158 3160 3160 3160 3161 3162 3162 3163 3164 3165 3166 3166 3167 3167 3166 3167 3166 3165 3164 3163 3163 3162 3162 3161 3161 3162 3162 3162 3162 3162 3161 3161 3161 3161
3114 3115 3117 3118 3123 3125 3130 3131 3128 3137 3138 3139 3141 3145 3148 3152 3155 3158 3159 3159 3160 3161 3162 3163 3163 3164 3164 3164 3164 3163 3164 3164 3162 3162 3161 3161 3161 3160 3160 3160 3159 3160 3160 3160 3159 3160 3160 3159 3159
3110 3111 3110 3114 3117 3120 3124 3118 3128 3128 3132 3135 3136 3139 3142 3147 3150 3153 3155 3156 3157 3159 3160 3161 3162 3162 3161 3161 3161 3160 3160 3161 3160 3159 3159 3159 3158 3158 3157 3157 3157 3157 3157 3157 3157 3157 3157 3156 3156
3104 3102 3104 3108 3110 3115 3115 3115 3124 3122 3126 3129 3132 3134 3138 3143 3146 3149 3151 3152 3154 3157 3156 3156 3157 3157 3157 3157 3157 3155 3157 3158 3157 3156 3156 3156 3156 3155 3155 3155 3155 3155 3155 3155 3154 3154 3153 3153 3152
3100 3099 3099 3100 3106 3107 3109 3111 3114 3117 3120 3124 3127 3131 3135 3138 3142 3144 3147 3146 3148 3151 3151 3151 3152 3153 3153 3153 3154 3155 3155 3155 3154 3153 3153 3153 3153 3152 3152 3152 3152 3152 3151 3151 3151 3150 3149 3148 3148
3096 3095 3094 3096 3100 3102 3103 3107 3109 3113 3114 3117 3122 3126 3130 3134 3136 3138 3135 3139 3143 3143 3145 3148 3149 3149 3151 3151 3151 3152 3153 3152 3151 3150 3150 3150 3149 3148 3148 3148 3148 3148 3147 3146 3146 3145 3144 3143 3142
3091 3091 3091 3093 3095 3097 3099 3101 3106 3107 3110 3113 3117 3119 3124 3128 3128 3132 3135 3138 3137 3141 3143 3144 3145 3146 3146 3147 3148 3149 3149 3148 3147 3146 3146 3146 3145 3145 3144 3144 3143 3143 3142 3141 3141 3140 3138 3137 3136
3086 3086 3088 3090 3091 3092 3094 3096 3099 3100 3105 3108 3111 3114 3117 3121 3124 3127 3131 3133 3135 3137 3138 3139 3140 3141 3142 3143 3144 3145 3145 3144 3143 3142 3142 3141 3141 3140 3140 3139 3139 3138 3137 3136 3135 3134 3133 3130 3127
3081 3082 3083 3086 3087 3085 3088 3087 3090 3096 3099 3102 3106 3108 3111 3114 3118 3121 3125 3129 3131 3133 3134 3133 3135 3136 3137 3139 3140 3141 3140 3140 3139 3138 3137 3137 3136 3136 3136 3135 3134 3133 3132 3131 3129 3127 3125 3123 3120
3077 3080 3081 3080 3082 3080 3082 3086 3081 3088 3093 3096 3100 3103 3105 3108 3112 3115 3120 3123 3124 3126 3128 3129 3130 3131 3133 3134 3136 3136 3135 3135 3134 3133 3133 3132 3132 3132 3131 3130 3129 3128 3126 3124 3121 3118 3116 3113 3111
3077 3077 3078 3079 3080 3080 3077 3082 3078 3084 3089 3093 3095 3099 3102 3105 3108 3111 3115 3117 3119 3121 3123 3124 3125 3126 3128 3130 3130 3131 3131 3130 3129 3128 3128 3128 3128 3127 3126 3124 3122 3120 3117 3115 3112 3110 3107 3104 3101
3076 3076 3076 3079 3073 3076 3075 3081 3077 3082 3083 3086 3090 3094 3097 3099 3103 3106 3109 3112 3115 3117 3118 3119 3120 3121 3123 3124 3125 3126 3125 3125 3125 3125 3124 3123 3122 3120 3118 3116 3114 3111 3109 3106 3103 3100 3096 3093 3089
3076 3077 3075 3067 3064 3064 3076 3077 3076 3076 3079 3083 3086 3089 3092 3094 3097 3100 3104 3107 3110 3111 3113 3114 3115 3116 3118 3120 3120 3121 3121 3120 3120 3119 3118 3116 3114 3112 3110 3108 3105 3102 3099 3096 3092 3088 3084 3080 3076
3075 3079 3079 3078 3071 3068 3073 3074 3074 3074 3076 3080 3083 3086 3088 3091 3093 3096 3100 3103 3105 3107 3108 3109 3111 3113 3115 3116 3116 3116 3115 3115 3114 3112 3111 3109 3107 3104 3102 3099 3096 3092 3089 3085 3080 3076 3072 3067 3064
3078 3080 3082 3080 3072 3066 3069 3072 3072 3074 3076 3078 3081 3083 3085 3088 3091 3094 3097 3100 3101 3103 3104 3105 3108 3110 3111 3111 3111 3110 3110 3108 3107 3105 3103 3101 3099 3096 3093 3089 3085 3081 3077 3072 3067 3064 3060 3057 3053
3079 3079 3080 3079 3078 3071 3065 3073 3075 3075 3075 3076 3078 3080 3083 3086 3089 3092 3094 3096 3098 3099 3101 3103 3106 3106 3107 3107 3107 3105 3104 3102 3100 3098 3096 3093 3090 3087 3083 3079 3074 3069 3065 3060 3056 3053 3049 3046 3043
3080 3079 3079 3078 3077 3076 3076 3078 3077 3077 3077 3077 3078 3080 3082 3085 3087 3090 3092 3094 3095 3097 3099 3100 3101 3102 3103 3103 3101 3099 3097 3095 3093 3090 3087 3084 3080 3076 3072 3067 3062 3058 3054 3050 3046 3043 3039 3035 3032